Location: Altmatt
(47.1333°N, 8.7000°E)
Time: 01:46:18
(UTC+00:00)

Cosmos 1821 Rocket - Pass Details

Date: 13 July 2020
Orbit: 945 x 1004 km, 82.9° (Epoch: 04 August)

Event Time Altitude Azimuth Distance (km) Brightness Sun altitude
Exits shadow 22:56:55 39° 171° (S) 1,387 4.3 -20.8°
Maximum altitude 22:59:17 75° 96° (E) 983 3.9 -20.8°
Drops below altitude 10° 23:05:23 10° 12° (NNE) 2,677 7.3 -21.0°
Sets 23:07:53 0° 11° (N) 3,628 8.3 -21.0°
